Regional Weather Roundup
Issued by NWS

Home | Current Version | Previous Version | Graphics & Text | Print | Product List | Glossary On
Versions: 1 2 3 4 5 6 7 8 9 10 11 12 13 14 15 16 17 18 19 20 21 22 23 24 25 26 27 28 29 30 31 32 33 34 35 36 37 38 39 40 41 42 43 44 45 46 47 48 49 50
000
ASUS43 KIND 282109
RWRIN

WEATHER ROUNDUP FOR INDIANA
NATIONAL WEATHER SERVICE INDIANAPOLIS IN
400 PM EST WED JAN 28 2015

NOTE: "FAIR" INDICATES FEW OR NO CLOUDS BELOW 12,000 FEET WITH NO
SIGNIFICANT WEATHER AND/OR OBSTRUCTIONS TO VISIBILITY.

* - STATION DOES NOT REPORT WEATHER SUCH AS PRECIPITATION OR FOG.

+ - STATION NOT QUALITY CONTROLLED BY THE NATIONAL WEATHER SERVICE.
    USE DATA WITH CAUTION...ESPECIALLY DEWPOINT AND RELATIVE
    HUMIDITY OBSERVATIONS.

INZ001>003-010>013-019-020-282200-
NORTHWEST INDIANA

CITY           SKY/WX    TMP DP  RH WIND       PRES   REMARKS
GARY /AIRPORT/ PTSUNNY   36  18  48 SE14G25   30.14F
KNOX *+        PTSUNNY   32   2  28 SE15      30.17F WCI  21
LA PORTE +     PTSUNNY   33  18  53 S9        30.17F WCI  25
MICHIGAN CITY+ PTSUNNY   32  12  43 S13G20    30.16F WCI  22
MONTICELLO +   MOSUNNY   33  20  58 SE8       30.17F WCI  26
RENSSELAER +   PTSUNNY   34  27  75 SE16      30.16F WCI  23
VALPARAISO     PTSUNNY   32  19  58 SE10      30.15F WCI  24

$$

LMZ046-743>745-282200-
SOUTHERN LAKE MICHIGAN

STATION/POSITION TIME  TEMP WIND        PRES
                       AIR  DIR/SP/G
                 (UTC) (F)  (DEG/KT/KT) (MB)
MICHIGAN CITY    2100   31  130/ 16/ 21   N/A

$$

INZ004-005-014>016-021>024-282200-
NORTH CENTRAL INDIANA

CITY           SKY/WX    TMP DP  RH WIND       PRES   REMARKS
GOSHEN         PTSUNNY   30   9  41 SE14      30.20F WCI  19
LOGANSPORT +   MOSUNNY   32  21  64 SE9       30.20F WCI  24
PERU/GRISSOM   MOSUNNY   31  21  65 SE12      30.19F WCI  22
ROCHESTER +    MOSUNNY   32  21  64 SE10      30.19F WCI  24
SOUTH BEND     PTSUNNY   31  14  49 SE16      30.18F WCI  20
WARSAW +       MOSUNNY   30  14  51 SE6       30.21S WCI  24

$$

INZ006>009-017-018-025>027-282200-
NORTHEAST INDIANA

CITY           SKY/WX    TMP DP  RH WIND       PRES   REMARKS
ANGOLA *+      SUNNY     25   9  50 SE8       30.21F WCI  16
AUBURN +       MOSUNNY   28  14  54 SE5       30.24F WCI  23
FORT WAYNE     PTSUNNY   27  15  61 SE9       30.25S WCI  18
HUNTINGTON +   MOSUNNY   29  11  47 S8        30.23R WCI  21

$$

INZ028-029-035-036-043>045-051>053-282200-
WEST CENTRAL INDIANA

CITY           SKY/WX    TMP DP  RH WIND       PRES   REMARKS
CRAWFORDSVL +  SUNNY     35  13  40 SE15      30.17S WCI  25
GREENCASTLE +  SUNNY     36  12  38 S13       30.18F
LAFAYETTE      MOSUNNY   37  19  48 SE13      30.17F
TERRE HAUTE    MOSUNNY   37  18  46 S15       30.18F

$$

INZ030>032-037>040-046>048-054>057-064-065-282200-
CENTRAL INDIANA

CITY           SKY/WX    TMP DP  RH WIND       PRES   REMARKS
ANDERSON       SUNNY     32  18  55 S12G17    30.23S WCI  23
CP ATTERBURY + SUNNY     36  19  51 S12       30.22F
INDIANAPOLIS   PTSUNNY   34  15  46 SE13      30.19F WCI  25
-EAGLE CREEK   SUNNY     35  13  40 SE13      30.19F WCI  26
KOKOMO *+      MOSUNNY   32  19  59 SE14      30.20F WCI  22
MARION +       SUNNY     31  17  56 SE7       30.22S WCI  24
MT COMFORT *+  SUNNY     34   9  35 S10       30.21F WCI  26
SHELBYVILLE    SUNNY     36  20  52 S14       30.21F
ZIONSVILLE +   SUNNY     36  15  42 SE13      30.19S

$$

INZ033-034-041-042-049-050-058-059-282200-
EAST CENTRAL INDIANA

CITY           SKY/WX    TMP DP  RH WIND       PRES   REMARKS
MUNCIE         SUNNY     31  16  54 S12       30.23S WCI  22

$$

INZ060-061-067>069-081>083-085>088-282200-
SOUTHWEST INDIANA

CITY           SKY/WX    TMP DP  RH WIND       PRES   REMARKS
EVANSVILLE     SUNNY     44  24  45 SE12      30.20F
HUNTINGBURG *+ SUNNY     41  19  42 S10       30.22F
WASHINGTON +   SUNNY     39  15  37 SE13      30.20S

$$

INZ062-063-066-070>080-084-089>092-282200-
SOUTH CENTRAL AND SOUTHEAST INDIANA

CITY           SKY/WX    TMP DP  RH WIND       PRES   REMARKS
BLOOMINGTON    SUNNY     37  16  42 SE15      30.19F

$$



USA.gov is the U.S. government's official web portal to all federal, state and local government web resources and services.